Regional Weather Roundup
Issued by NWS

Home | Current Version | Previous Version | Text Only | Print | Product List | Glossary Off
Versions: 1 2 3 4 5 6 7 8 9 10 11 12 13 14 15 16 17 18 19 20 21 22 23 24 25 26 27 28 29 30 31 32 33 34 35 36 37 38 39 40 41 42 43 44 45 46 47 48 49 50

000
ASUS45 KBOU 011907
RWRCO

WEATHER ROUNDUP FOR COLORADO
NATIONAL WEATHER SERVICE DENVER/BOULDER CO
100 PM MDT MON SEP 01 2014

NOTE: "FAIR" INDICATES FEW OR NO CLOUDS BELOW 12000 FEET WITH NO
SIGNIFICANT WEATHER AND/OR OBSTRUCTIONS TO VISIBILITY.

COZ001>005-013-030-031-012000-
...NORTHWEST COLORADO...

CITY           SKY/WX    TMP DP  RH WIND       PRES   REMARKS
CRAIG          SUNNY     72  35  25 W7        30.12F
HAYDEN         SUNNY     68  36  30 NW15G21   30.13F
MEEKER         SUNNY     72  34  24 W3        30.15F
MOUNT WERNER   NOT AVBL
STEAMBOAT SPGS SUNNY     64  35  33 W8G18     30.16F
WALDEN         MOSUNNY   61  30  31 SW18G31   30.20F
$$

COZ006>008-011-012000-
...WEST CENTRAL VALLEYS...

CITY           SKY/WX    TMP DP  RH WIND       PRES   REMARKS
GRAND JUNCTION SUNNY     78  36  21 VRB3      30.05F
MONTROSE       SUNNY     79  33  19 VRB5      30.12F
EAGLE          MOSUNNY   73  34  23 SW26      30.15F
RIFLE          SUNNY     75  39  27 VRB6      30.09F
DELTA          SUNNY     81  35  18 S5        30.08F HAZE
NUCLA          SUNNY     79  32  18 W6        30.15F
$$

COZ017>023-064>068-012000-
...SOUTHWEST COLORADO...

CITY           SKY/WX    TMP DP  RH WIND       PRES   REMARKS
DURANGO        SUNNY     83  29  14 W22       30.15F
CORTEZ         SUNNY     84  33  16 W16G23    30.13F
PAGOSA SPRINGS   N/A     76  22  13 SW8G24    30.23F
TELLURIDE      MOSUNNY   68  28  22 W13G22    30.34S
WOLF CREEK PAS SUNNY     52  32  46 SW23G31   30.50S
$$

COZ009-010-012-014-032>034-037-058>063-012000-
...CENTRAL COLORADO...

CITY           SKY/WX    TMP DP  RH WIND       PRES   REMARKS
ASPEN          MOSUNNY   68  35  29 N13G22    30.20F
BUENA VISTA    MOSUNNY   74  23  15 W22G38    30.18F
COPPER MTN     MOSUNNY   54  32  43 W25G37    30.44F
BERTHOUD PASS  CLOUDY    39  37  93 W25G38    30.45R
COTTONWOOD PAS SUNNY     66  23  19 W17G33    30.31S
GUNNISON       SUNNY     72  34  25 SW15G26   30.23F
KREMMLING      CLOUDY    68  30  24 CALM      30.18F
LEADVILLE      SUNNY     60  29  30 NW14G29   30.31F
SALIDA         SUNNY     76  28  17 SW17G35   30.23F
SUNLIGHT       SUNNY     59  37  44 CALM      30.42F
WILKERSON PASS NOT AVBL
$$

COZ069>075-012000-
...SAN LUIS VALLEY/SANGRE DE CRISTO MOUNTAINS...

CITY           SKY/WX    TMP DP  RH WIND       PRES   REMARKS
ALAMOSA        SUNNY     79  30  16 VRB6      30.15F
LA VETA PASS   NOT AVBL
SAGUACHE       NOT AVBL
$$

COZ035-036-038>040-012000-
...NORTHERN COLORADO FRONT RANGE...

CITY           SKY/WX    TMP DP  RH WIND       PRES   REMARKS
DENVER INTL AP MOSUNNY   76  37  24 NW12      30.03F
DMNS CITY PARK   N/A     76  41  28 E9        30.01F
AURORA         MOSUNNY   74  38  27 VRB5      30.05F
FRONT RANGE AP NOT AVBL
ERIE MUNI ARPT SUNNY     77  36  22 W6        30.01F
BOULDER MUN AP MOSUNNY   75  41  29 E3        30.01F
CENTENNIAL     MOSUNNY   73  37  27 SE6       30.06F
BROOMFIELD     MOSUNNY   73  39  29 NE7       30.05F
FORT COLLINS   SUNNY     73  48  40 E6        30.03F
LONGMONT       SUNNY     78  45  30 E5        30.02F
$$

COZ041-046-047-076>085-087-088-012000-
...PIKES PEAK/PALMER DIVIDE AND SOUTHERN FOOTHILLS...

CITY           SKY/WX    TMP DP  RH WIND       PRES   REMARKS
COLO. SPRINGS  MOSUNNY   73  47  39 S18       30.08F
A. F. ACADEMY  SUNNY     71  47  43 SE13G18   30.09F
ELLICOTT       SUNNY     72  44  36 S16       30.08F
FALCON         MOSUNNY   69  46  45 S8G20     30.14F
FORT CARSON    SUNNY     75  48  38 S15G24    30.05F
LIMON          SUNNY     72  42  34 S9        30.07F
MONUMENT HILL  SUNNY     68  41  37 CALM      30.12F
TRINIDAD       SUNNY     79  45  29 S6        30.05F
$$

COZ042>045-048>051-090-091-012000-
...NORTHEAST COLORADO...

CITY           SKY/WX    TMP DP  RH WIND       PRES   REMARKS
GREELEY ARPT   SUNNY     73  46  38 E6        30.02F
AKRON          MOSUNNY   74  48  39 MISG      30.03F
BURLINGTON     SUNNY     74  43  32 CALM      30.02F
WRAY             N/A     75  48  38 SW3       30.01F
STERLING       SUNNY     73  54  49 S6        30.00F
HOLYOKE        MOSUNNY   73  55  53 W5        30.01F
FORT MORGAN    SUNNY     74  47  38 S9        30.02F
$$

COZ086-089-092>099-012000-
...SOUTHEAST COLORADO...

CITY           SKY/WX    TMP DP  RH WIND       PRES   REMARKS
PUEBLO         SUNNY     78  48  34 VRB6G17   30.00F
LA JUNTA       SUNNY     81  41  24 SE9G17    30.00F
LAMAR          SUNNY     80  47  31 SE6       29.97F
SPRINGFIELD      N/A     78  46  32 SE6       30.01F
$$


USA.gov is the U.S. government's official web portal to all federal, state and local government web resources and services.